Simultaneous Nadir Overpasses (SNOs) Predictions

Prediction of SNOs between AQUA and METOP-A Satellite Orbit:

Table of predicted SNOs for the next 14.0 days since TLE Epoch: 1/25/2019
Index Date (AQUA) Time (AQUA) Lat,Lon (AQUA) SZA (AQUA ) Date (METOP-A) Time (METOP-A) Lat,Lon (METOP-A) SZA (METOP-A ) Distance(km) Time Diff (sec)
1 01/26/2019 17:41:02 74.84, -93.35 93.68 01/26/2019 17:40:39 74.85, -93.32 93.69 1.84 23
2 01/26/2019 18:30:28 -74.87, 74.20 86.30 01/26/2019 18:31:20 -74.88, 74.08 86.30 3.57 52
3 01/29/2019 13:15:18 74.83, -26.90 92.94 01/29/2019 13:14:54 74.83, -26.98 92.95 2.17 24
4 01/29/2019 14:04:45 -74.91, 140.54 86.99 01/29/2019 14:05:34 -74.90, 140.56 87.00 0.74 49
5 02/01/2019 08:49:33 74.83, 39.53 92.17 02/01/2019 08:49:07 74.85, 39.50 92.20 2.59 26
6 02/01/2019 09:39:00 -74.90,-153.00 87.77 02/01/2019 09:39:47 -74.93,-152.96 87.75 3.35 47
7 02/04/2019 04:23:49 74.84, 105.96 91.36 02/04/2019 04:23:22 74.83, 105.84 91.37 3.68 27
8 02/04/2019 05:13:16 -74.90, -86.56 88.58 02/04/2019 05:14:02 -74.90, -86.62 88.58 1.96 46
9 02/06/2019 23:58:05 74.85, 172.37 90.52 02/06/2019 23:57:36 74.85, 172.30 90.53 1.86 29
10 02/07/2019 00:47:32 -74.90, -20.13 89.43 02/07/2019 00:48:16 -74.93, -20.15 89.42 2.81 44




NCC Satellite Simultaneous Nadir Overpasses (SNOs) Prediction Service
